AFL1594 LGAV-URWW

Flight info

Callsign AFL1594
Flight time 3h 40m
Altitude 35000
Route KEA1N KEA UR20 IMR UR32 HAY UT54 SIV UW706 TBN UN37 SARPI BARUS LURIS A955 PINMU KUDAS ITAKA TUVGI EVZUN ZIZAR VAZLU UZZID NOKLI NOKL2G
Aircraft B738/M-VGDW/C

Departure

Time 2026-05-07 14:04
Airport Athens Eleftherios Venizelos International Airport (LGAV)

Arrival

Time 2026-05-07 17:44
Airport Volgograd International Airport (URWW)
Time Latitude Longitude Altitude Speed Heading
2026-05-07 13:38 37.93519 23.94748 277 ft 0 kts 310°
2026-05-07 13:51 37.93519 23.94749 287 ft 2 kts 310°
2026-05-07 13:51 37.93512 23.94759 289 ft 2 kts 310°
2026-05-07 13:51 37.93501 23.94775 292 ft 2 kts 310°
2026-05-07 13:51 37.93491 23.94791 288 ft 2 kts 310°
2026-05-07 13:52 37.93480 23.94807 293 ft 2 kts 310°
2026-05-07 13:52 37.93470 23.94823 291 ft 2 kts 321°
2026-05-07 13:52 37.93450 23.94825 291 ft 2 kts 39°
2026-05-07 13:52 37.93437 23.94813 289 ft 2 kts 37°
2026-05-07 13:53 37.93429 23.94805 291 ft 0 kts 37°
2026-05-07 13:54 37.93430 23.94806 290 ft 1 kts 37°
2026-05-07 13:55 37.93445 23.94851 288 ft 7 kts 94°
2026-05-07 13:55 37.93427 23.94907 288 ft 7 kts 125°
2026-05-07 13:55 37.93399 23.94956 288 ft 7 kts 126°
2026-05-07 13:55 37.93389 23.95014 288 ft 8 kts 73°
2026-05-07 13:56 37.93444 23.95082 293 ft 14 kts 36°
2026-05-07 13:56 37.93531 23.95165 294 ft 16 kts 37°
2026-05-07 13:56 37.93617 23.95247 295 ft 15 kts 36°
2026-05-07 13:56 37.93713 23.95339 296 ft 20 kts 37°
2026-05-07 13:57 37.93843 23.95463 294 ft 26 kts 37°
2026-05-07 13:57 37.93981 23.95593 297 ft 24 kts 37°
2026-05-07 13:57 37.94111 23.95718 299 ft 23 kts 37°
2026-05-07 13:57 37.94236 23.95838 300 ft 22 kts 37°
2026-05-07 13:58 37.94359 23.95953 303 ft 22 kts 37°
2026-05-07 13:58 37.94477 23.96066 304 ft 21 kts 36°
2026-05-07 13:58 37.94592 23.96175 306 ft 20 kts 37°
2026-05-07 13:58 37.94704 23.96282 305 ft 20 kts 36°
2026-05-07 13:59 37.94812 23.96384 306 ft 19 kts 37°
2026-05-07 13:59 37.94916 23.96484 307 ft 18 kts 37°
2026-05-07 13:59 37.95017 23.96581 309 ft 18 kts 37°
2026-05-07 13:59 37.95114 23.96673 310 ft 17 kts 37°
2026-05-07 14:00 37.95208 23.96762 311 ft 17 kts 37°
2026-05-07 14:00 37.95277 23.96828 311 ft 7 kts 40°
2026-05-07 14:00 37.95287 23.96840 312 ft 0 kts 46°
2026-05-07 14:01 37.95292 23.96849 312 ft 3 kts 56°
2026-05-07 14:01 37.95296 23.96892 312 ft 6 kts 103°
2026-05-07 14:01 37.95272 23.96940 312 ft 6 kts 127°
2026-05-07 14:01 37.95271 23.96942 312 ft 0 kts 127°
2026-05-07 14:02 37.95270 23.96945 312 ft 2 kts 127°
2026-05-07 14:02 37.95250 23.96978 313 ft 8 kts 127°
2026-05-07 14:02 37.95203 23.97017 313 ft 8 kts 180°
2026-05-07 14:03 37.95171 23.96998 312 ft 0 kts 217°
2026-05-07 14:03 37.95130 23.96959 313 ft 31 kts 217°
2026-05-07 14:03 37.94746 23.96596 309 ft 105 kts 216°
2026-05-07 14:03 37.93996 23.95883 349 ft 159 kts 216°
2026-05-07 14:04 37.93098 23.95029 1019 ft 167 kts 214°
2026-05-07 14:04 37.92159 23.94148 1858 ft 169 kts 217°
2026-05-07 14:04 37.91077 23.93451 2382 ft 188 kts 204°
2026-05-07 14:04 37.89821 23.92663 2634 ft 214 kts 207°
2026-05-07 14:05 37.88451 23.91742 3070 ft 226 kts 208°
2026-05-07 14:05 37.87042 23.90794 3601 ft 233 kts 208°
2026-05-07 14:05 37.85588 23.89811 4206 ft 239 kts 208°
2026-05-07 14:05 37.84106 23.88817 4876 ft 247 kts 208°
2026-05-07 14:06 37.82583 23.87799 5674 ft 250 kts 209°
2026-05-07 14:06 37.81030 23.86757 6424 ft 254 kts 209°
2026-05-07 14:06 37.79454 23.85700 7174 ft 258 kts 209°
2026-05-07 14:06 37.77807 23.84760 7897 ft 264 kts 195°
2026-05-07 14:07 37.75928 23.84718 8344 ft 282 kts 167°
2026-05-07 14:07 37.74150 23.85846 8927 ft 293 kts 140°
2026-05-07 14:07 37.72846 23.87845 9683 ft 297 kts 122°
2026-05-07 14:07 37.71836 23.90146 10375 ft 303 kts 117°
2026-05-07 14:08 37.70868 23.92607 10610 ft 325 kts 116°
2026-05-07 14:08 37.69841 23.95261 10800 ft 348 kts 116°
2026-05-07 14:08 37.68751 23.98044 11093 ft 364 kts 117°
2026-05-07 14:08 37.67602 24.00927 11647 ft 371 kts 117°
2026-05-07 14:09 37.66422 24.03848 12325 ft 376 kts 117°
2026-05-07 14:09 37.65220 24.06795 12945 ft 380 kts 117°
2026-05-07 14:09 37.63995 24.09782 13556 ft 386 kts 117°
2026-05-07 14:09 37.62749 24.12812 14149 ft 390 kts 118°
2026-05-07 14:10 37.61492 24.15864 14738 ft 393 kts 118°
2026-05-07 14:10 37.60227 24.18935 15347 ft 396 kts 118°
2026-05-07 14:10 37.58951 24.22029 15936 ft 400 kts 118°
2026-05-07 14:10 37.57660 24.25154 16529 ft 403 kts 118°
2026-05-07 14:11 37.56649 24.28455 17061 ft 409 kts 102°
2026-05-07 14:11 37.56473 24.32038 17627 ft 413 kts 84°
2026-05-07 14:11 37.57146 24.35558 18115 ft 415 kts 69°
2026-05-07 14:11 37.58142 24.38991 18659 ft 419 kts 68°
2026-05-07 14:12 37.59167 24.42448 19127 ft 422 kts 68°
2026-05-07 14:12 37.60195 24.45919 19664 ft 424 kts 68°
2026-05-07 14:12 37.61218 24.49414 20173 ft 426 kts 68°
2026-05-07 14:12 37.62237 24.52939 20667 ft 429 kts 68°
2026-05-07 14:13 37.63255 24.56500 21136 ft 432 kts 68°
2026-05-07 14:13 37.64274 24.60086 21613 ft 435 kts 69°
2026-05-07 14:13 37.65293 24.63694 22079 ft 438 kts 69°
2026-05-07 14:13 37.66316 24.67326 22542 ft 440 kts 69°
2026-05-07 14:14 37.67345 24.70983 22989 ft 443 kts 69°
2026-05-07 14:14 37.68378 24.74665 23424 ft 446 kts 69°
2026-05-07 14:14 37.69419 24.78373 23821 ft 449 kts 69°
2026-05-07 14:14 37.70463 24.82101 24171 ft 452 kts 68°
2026-05-07 14:15 37.71501 24.85809 24500 ft 455 kts 68°
2026-05-07 14:15 37.72558 24.89594 24837 ft 458 kts 68°
2026-05-07 14:15 37.73620 24.93398 25184 ft 461 kts 68°
2026-05-07 14:15 37.74689 24.97233 25543 ft 464 kts 68°
2026-05-07 14:16 37.75761 25.01087 25887 ft 467 kts 68°
2026-05-07 14:16 37.76842 25.04976 26188 ft 470 kts 68°
2026-05-07 14:16 37.77926 25.08883 26497 ft 472 kts 67°
2026-05-07 14:16 37.79016 25.12818 26810 ft 475 kts 67°
2026-05-07 14:17 37.80109 25.16770 27118 ft 477 kts 67°
2026-05-07 14:17 37.81207 25.20745 27421 ft 479 kts 67°
2026-05-07 14:17 37.82307 25.24736 27728 ft 482 kts 67°
2026-05-07 14:17 37.83399 25.28702 28028 ft 484 kts 67°
2026-05-07 14:18 37.84506 25.32729 28328 ft 485 kts 67°
2026-05-07 14:18 37.85622 25.36795 28638 ft 487 kts 67°
2026-05-07 14:18 37.86734 25.40853 28960 ft 488 kts 67°
2026-05-07 14:18 37.87833 25.44870 29287 ft 489 kts 68°
2026-05-07 14:19 37.88946 25.48947 29600 ft 490 kts 68°
2026-05-07 14:19 37.90060 25.53032 29901 ft 491 kts 68°
2026-05-07 14:19 37.91175 25.57127 30237 ft 491 kts 68°
2026-05-07 14:19 37.92273 25.61167 30636 ft 487 kts 68°
2026-05-07 14:20 37.93374 25.65225 31013 ft 485 kts 68°
2026-05-07 14:20 37.94471 25.69273 31328 ft 484 kts 68°
2026-05-07 14:20 37.95563 25.73308 31617 ft 484 kts 68°
2026-05-07 14:20 37.96653 25.77340 31921 ft 483 kts 68°
2026-05-07 14:21 37.97739 25.81365 32243 ft 481 kts 68°
2026-05-07 14:21 37.98823 25.85389 32563 ft 480 kts 69°
2026-05-07 14:21 37.99901 25.89398 32856 ft 479 kts 69°
2026-05-07 14:21 38.00974 25.93394 33156 ft 478 kts 69°
2026-05-07 14:22 38.02044 25.97384 33484 ft 477 kts 69°
2026-05-07 14:22 38.03108 26.01359 33786 ft 475 kts 69°
2026-05-07 14:22 38.04156 26.05281 34085 ft 474 kts 69°
2026-05-07 14:22 38.05212 26.09238 34338 ft 473 kts 69°
2026-05-07 14:23 38.06265 26.13186 34536 ft 473 kts 68°
2026-05-07 14:23 38.07317 26.17140 34719 ft 473 kts 68°
2026-05-07 14:23 38.08370 26.21102 34922 ft 473 kts 68°
2026-05-07 14:23 38.09423 26.25073 35131 ft 473 kts 68°
2026-05-07 14:24 38.10471 26.29028 35316 ft 473 kts 68°
2026-05-07 14:24 38.11549 26.32981 35479 ft 473 kts 66°
2026-05-07 14:24 38.12694 26.36861 35657 ft 472 kts 65°
2026-05-07 14:24 38.13884 26.40758 35847 ft 472 kts 65°
2026-05-07 14:25 38.15077 26.44644 36018 ft 472 kts 65°
2026-05-07 14:25 38.16266 26.48541 36172 ft 473 kts 65°
2026-05-07 14:25 38.17427 26.52384 36351 ft 472 kts 65°
2026-05-07 14:25 38.18596 26.56289 36552 ft 472 kts 65°
2026-05-07 14:26 38.19757 26.60189 36709 ft 472 kts 65°
2026-05-07 14:26 38.20916 26.64094 36839 ft 473 kts 65°
2026-05-07 14:26 38.22076 26.68009 37020 ft 472 kts 65°
2026-05-07 14:26 38.23233 26.71921 37128 ft 472 kts 65°
2026-05-07 14:27 38.24391 26.75839 37125 ft 474 kts 65°
2026-05-07 14:27 38.26701 26.83674 37130 ft 472 kts 65°
2026-05-07 14:28 38.29000 26.91489 37132 ft 470 kts 65°
2026-05-07 14:28 38.31282 26.99277 37136 ft 469 kts 66°
2026-05-07 14:29 38.32842 27.07313 37141 ft 472 kts 76°
2026-05-07 14:29 38.34024 27.15529 37132 ft 471 kts 76°
2026-05-07 14:30 38.35231 27.23719 37131 ft 470 kts 76°
2026-05-07 14:30 38.36472 27.31900 37140 ft 470 kts 76°
2026-05-07 14:31 38.37719 27.40107 37129 ft 471 kts 76°
2026-05-07 14:31 38.38944 27.48255 37127 ft 471 kts 76°
2026-05-07 14:32 38.40163 27.56475 37132 ft 471 kts 76°
2026-05-07 14:32 38.41375 27.64701 37121 ft 472 kts 76°
2026-05-07 14:33 38.42584 27.72940 37122 ft 473 kts 76°
2026-05-07 14:33 38.43781 27.81134 37116 ft 473 kts 76°
2026-05-07 14:34 38.44988 27.89436 37135 ft 473 kts 76°
2026-05-07 14:34 38.46173 27.97631 37130 ft 472 kts 76°
2026-05-07 14:35 38.47357 28.05858 37130 ft 471 kts 76°
2026-05-07 14:35 38.48533 28.14076 37138 ft 470 kts 76°
2026-05-07 14:36 38.49701 28.22274 37134 ft 469 kts 76°
2026-05-07 14:36 38.51103 28.30377 37142 ft 465 kts 71°
2026-05-07 14:37 38.52915 28.38306 37138 ft 464 kts 70°
2026-05-07 14:37 38.55594 28.50207 37143 ft 465 kts 70°
2026-05-07 14:38 38.57324 28.58111 37145 ft 465 kts 70°
2026-05-07 14:38 38.58575 28.66266 37155 ft 469 kts 79°
2026-05-07 14:39 38.59355 28.74571 37141 ft 471 kts 80°
2026-05-07 14:39 38.60147 28.82873 37146 ft 471 kts 79°
2026-05-07 14:40 38.60989 28.91189 37153 ft 471 kts 79°
2026-05-07 14:40 38.61841 28.99515 37142 ft 473 kts 79°
2026-05-07 14:41 38.62544 29.06452 37156 ft 474 kts 79°
2026-05-07 14:41 38.63386 29.14833 37158 ft 475 kts 78°
2026-05-07 14:42 38.64232 29.23221 37174 ft 475 kts 78°
2026-05-07 14:42 38.65075 29.31613 37176 ft 476 kts 78°
2026-05-07 14:43 38.65906 29.39967 37189 ft 476 kts 78°
2026-05-07 14:43 38.66741 29.48371 37185 ft 475 kts 78°
2026-05-07 14:44 38.67763 29.56706 37191 ft 474 kts 76°
2026-05-07 14:44 38.68859 29.65022 37173 ft 473 kts 76°
2026-05-07 14:45 38.69920 29.73343 37170 ft 473 kts 76°
2026-05-07 14:45 38.70950 29.81625 37167 ft 472 kts 76°
2026-05-07 14:46 38.71977 29.89941 37159 ft 472 kts 76°
2026-05-07 14:46 38.72994 29.98213 37156 ft 472 kts 76°
2026-05-07 14:47 38.74053 30.06494 37157 ft 470 kts 75°
2026-05-07 14:47 38.75167 30.14763 37160 ft 470 kts 75°
2026-05-07 14:48 38.76263 30.22971 37151 ft 469 kts 75°
2026-05-07 14:48 38.77350 30.31225 37157 ft 469 kts 75°
2026-05-07 14:49 38.78427 30.39474 37156 ft 467 kts 75°
2026-05-07 14:49 38.79494 30.47681 37158 ft 467 kts 75°
2026-05-07 14:50 38.80744 30.55805 37147 ft 459 kts 66°
2026-05-07 14:50 38.83142 30.63289 37161 ft 452 kts 60°
2026-05-07 14:51 38.85671 30.70633 37166 ft 452 kts 60°
2026-05-07 14:51 38.88182 30.78049 37166 ft 452 kts 60°
2026-05-07 14:52 38.90657 30.85477 37165 ft 452 kts 60°
2026-05-07 14:52 38.93103 30.92876 37171 ft 453 kts 60°
2026-05-07 14:53 38.95555 31.00313 37161 ft 453 kts 60°
2026-05-07 14:53 38.98011 31.07776 37174 ft 454 kts 61°
2026-05-07 14:54 39.00469 31.15265 37158 ft 454 kts 61°
2026-05-07 14:54 39.02923 31.22760 37180 ft 454 kts 61°
2026-05-07 14:55 39.05355 31.30208 37163 ft 454 kts 61°
2026-05-07 14:55 39.07800 31.37716 37173 ft 454 kts 61°
2026-05-07 14:56 39.10221 31.45168 37169 ft 454 kts 61°
2026-05-07 14:56 39.12660 31.52700 37168 ft 454 kts 61°
2026-05-07 14:57 39.15088 31.60214 37166 ft 454 kts 61°
2026-05-07 14:57 39.17515 31.67747 37171 ft 454 kts 61°
2026-05-07 14:58 39.19923 31.75241 37160 ft 455 kts 61°
2026-05-07 14:58 39.22340 31.82783 37167 ft 455 kts 62°
2026-05-07 14:59 39.24749 31.90337 37166 ft 455 kts 62°
2026-05-07 14:59 39.27147 31.97885 37161 ft 455 kts 62°
2026-05-07 15:00 39.29545 32.05448 37165 ft 455 kts 62°
2026-05-07 15:00 39.31941 32.13028 37167 ft 456 kts 62°
2026-05-07 15:01 39.34332 32.20610 37163 ft 457 kts 62°
2026-05-07 15:01 39.36710 32.28175 37178 ft 457 kts 62°
2026-05-07 15:02 39.39106 32.35813 37176 ft 458 kts 63°
2026-05-07 15:02 39.41447 32.43510 37168 ft 459 kts 63°
2026-05-07 15:03 39.43665 32.51226 37170 ft 463 kts 69°
2026-05-07 15:03 39.44744 32.59523 37179 ft 469 kts 78°
2026-05-07 15:04 39.45544 32.67920 37172 ft 469 kts 78°
2026-05-07 15:04 39.46392 32.76232 37171 ft 468 kts 77°
2026-05-07 15:05 39.47279 32.84586 37156 ft 468 kts 77°
2026-05-07 15:05 39.48156 32.92933 37163 ft 467 kts 77°
2026-05-07 15:06 39.49029 33.01264 37165 ft 467 kts 77°
2026-05-07 15:06 39.49899 33.09605 37153 ft 467 kts 77°
2026-05-07 15:07 39.50760 33.17927 37157 ft 466 kts 77°
2026-05-07 15:07 39.51615 33.26237 37153 ft 465 kts 77°
2026-05-07 15:08 39.52458 33.34490 37150 ft 464 kts 77°
2026-05-07 15:08 39.53302 33.42793 37156 ft 464 kts 77°
2026-05-07 15:09 39.54140 33.51100 37152 ft 464 kts 78°
2026-05-07 15:09 39.54967 33.59345 37160 ft 464 kts 78°
2026-05-07 15:10 39.55793 33.67654 37148 ft 465 kts 78°
2026-05-07 15:10 39.56616 33.75975 37158 ft 465 kts 78°
2026-05-07 15:11 39.57430 33.84269 37153 ft 466 kts 78°
2026-05-07 15:11 39.58244 33.92618 37158 ft 467 kts 78°
2026-05-07 15:12 39.59054 34.00993 37155 ft 468 kts 78°
2026-05-07 15:12 39.59858 34.09376 37156 ft 468 kts 78°
2026-05-07 15:13 39.60653 34.17721 37149 ft 469 kts 78°
2026-05-07 15:13 39.61446 34.26124 37161 ft 468 kts 78°
2026-05-07 15:14 39.62234 34.34515 37150 ft 469 kts 78°
2026-05-07 15:14 39.63017 34.42923 37157 ft 468 kts 79°
2026-05-07 15:15 39.63796 34.51327 37151 ft 468 kts 79°
2026-05-07 15:15 39.64565 34.59676 37157 ft 468 kts 79°
2026-05-07 15:16 39.65356 34.68333 37150 ft 467 kts 79°
2026-05-07 15:16 39.66091 34.76453 37151 ft 467 kts 79°
2026-05-07 15:17 39.66844 34.84831 37150 ft 466 kts 79°
2026-05-07 15:17 39.67586 34.93157 37149 ft 466 kts 79°
2026-05-07 15:18 39.68324 35.01508 37153 ft 465 kts 79°
2026-05-07 15:18 39.69056 35.09856 37153 ft 465 kts 79°
2026-05-07 15:19 39.69782 35.18203 37149 ft 465 kts 79°
2026-05-07 15:19 39.70498 35.26507 37147 ft 465 kts 79°
2026-05-07 15:20 39.71213 35.34874 37149 ft 466 kts 80°
2026-05-07 15:20 39.71922 35.43238 37145 ft 466 kts 80°
2026-05-07 15:21 39.72627 35.51623 37134 ft 467 kts 80°
2026-05-07 15:21 39.73327 35.60039 37151 ft 468 kts 80°
2026-05-07 15:22 39.74017 35.68529 37137 ft 469 kts 80°
2026-05-07 15:22 39.74688 35.76890 37135 ft 469 kts 80°
2026-05-07 15:23 39.75357 35.85274 37141 ft 469 kts 80°
2026-05-07 15:23 39.76025 35.93720 37139 ft 470 kts 81°
2026-05-07 15:24 39.76687 36.02165 37147 ft 470 kts 81°
2026-05-07 15:24 39.77342 36.10606 37140 ft 469 kts 81°
2026-05-07 15:25 39.77992 36.19051 37152 ft 468 kts 81°
2026-05-07 15:25 39.78515 36.27460 37144 ft 469 kts 85°
2026-05-07 15:26 39.78595 36.35953 37146 ft 470 kts 87°
2026-05-07 15:26 39.78608 36.44419 37141 ft 469 kts 87°
2026-05-07 15:27 39.78659 36.52901 37163 ft 468 kts 86°
2026-05-07 15:27 39.78725 36.61361 37174 ft 468 kts 87°
2026-05-07 15:28 39.78786 36.69814 37194 ft 467 kts 87°
2026-05-07 15:28 39.78832 36.76830 37209 ft 467 kts 87°
2026-05-07 15:29 39.79124 36.86606 37207 ft 463 kts 77°
2026-05-07 15:29 39.81046 36.94496 37204 ft 455 kts 59°
2026-05-07 15:30 39.83620 37.00458 37216 ft 454 kts 57°
2026-05-07 15:30 39.86792 37.07572 37199 ft 455 kts 57°
2026-05-07 15:31 39.89931 37.14731 37182 ft 455 kts 58°
2026-05-07 15:31 39.93038 37.21917 37170 ft 456 kts 58°
2026-05-07 15:32 39.96142 37.29131 37150 ft 456 kts 58°
2026-05-07 15:32 39.99247 37.36361 37145 ft 457 kts 58°
2026-05-07 15:33 40.02351 37.43603 37150 ft 457 kts 58°
2026-05-07 15:33 40.05438 37.50821 37137 ft 458 kts 58°
2026-05-07 15:34 40.08546 37.58105 37154 ft 458 kts 58°
2026-05-07 15:34 40.11644 37.65326 37150 ft 458 kts 58°
2026-05-07 15:35 40.14761 37.72581 37152 ft 457 kts 58°
2026-05-07 15:35 40.17868 37.79840 37153 ft 457 kts 58°
2026-05-07 15:36 40.20966 37.87099 37155 ft 456 kts 58°
2026-05-07 15:36 40.24056 37.94359 37154 ft 456 kts 59°
2026-05-07 15:37 40.27136 38.01614 37152 ft 456 kts 59°
2026-05-07 15:37 40.30191 38.08824 37163 ft 455 kts 59°
2026-05-07 15:38 40.33252 38.16077 37165 ft 455 kts 59°
2026-05-07 15:38 40.36210 38.23420 37169 ft 455 kts 60°
2026-05-07 15:39 40.39174 38.30746 37180 ft 455 kts 59°
2026-05-07 15:39 40.42294 38.37994 37179 ft 456 kts 58°
2026-05-07 15:40 40.45424 38.45246 37179 ft 457 kts 59°
2026-05-07 15:40 40.48535 38.52538 37172 ft 458 kts 59°
2026-05-07 15:41 40.51635 38.59864 37180 ft 459 kts 60°
2026-05-07 15:41 40.54662 38.67278 37180 ft 460 kts 60°
2026-05-07 15:42 40.57656 38.74667 37179 ft 461 kts 60°
2026-05-07 15:42 40.60684 38.82124 37181 ft 462 kts 60°
2026-05-07 15:43 40.63710 38.89578 37165 ft 461 kts 60°
2026-05-07 15:43 40.66719 38.97029 37170 ft 461 kts 60°
2026-05-07 15:44 40.69729 39.04518 37185 ft 461 kts 61°
2026-05-07 15:44 40.72724 39.11990 37187 ft 461 kts 61°
2026-05-07 15:45 40.75698 39.19423 37176 ft 461 kts 61°
2026-05-07 15:45 40.78680 39.26895 37175 ft 460 kts 61°
2026-05-07 15:46 40.83144 39.38115 37184 ft 459 kts 61°
2026-05-07 15:47 40.86109 39.45593 37193 ft 459 kts 61°
2026-05-07 15:47 40.89052 39.53031 37208 ft 459 kts 61°
2026-05-07 15:48 40.92010 39.60529 37216 ft 459 kts 62°
2026-05-07 15:48 40.94961 39.68027 37213 ft 459 kts 62°
2026-05-07 15:49 40.97909 39.75533 37214 ft 460 kts 62°
2026-05-07 15:49 41.00802 39.83082 37206 ft 460 kts 64°
2026-05-07 15:50 41.03426 39.90774 37216 ft 460 kts 65°
2026-05-07 15:50 41.06035 39.98522 37204 ft 461 kts 65°
2026-05-07 15:51 41.08681 40.06264 37202 ft 461 kts 65°
2026-05-07 15:51 41.11337 40.14013 37189 ft 461 kts 65°
2026-05-07 15:52 41.13979 40.21768 37184 ft 462 kts 65°
2026-05-07 15:52 41.16600 40.29556 37184 ft 462 kts 65°
2026-05-07 15:53 41.19207 40.37320 37185 ft 462 kts 65°
2026-05-07 15:53 41.21857 40.45109 37190 ft 463 kts 65°
2026-05-07 15:54 41.24491 40.52918 37180 ft 463 kts 65°
2026-05-07 15:54 41.27114 40.60744 37190 ft 463 kts 65°
2026-05-07 15:55 41.29721 40.68537 37181 ft 463 kts 65°
2026-05-07 15:55 41.32337 40.76373 37185 ft 463 kts 65°
2026-05-07 15:56 41.34949 40.84223 37182 ft 463 kts 66°
2026-05-07 15:56 41.37557 40.92079 37185 ft 463 kts 66°
2026-05-07 15:57 41.40158 40.99938 37182 ft 463 kts 66°
2026-05-07 15:57 41.42754 41.07802 37179 ft 463 kts 66°
2026-05-07 15:58 41.45339 41.15674 37184 ft 463 kts 66°
2026-05-07 15:58 41.47907 41.23568 37194 ft 464 kts 66°
2026-05-07 15:59 41.50462 41.31404 37199 ft 464 kts 66°
2026-05-07 15:59 41.53058 41.39338 37209 ft 464 kts 66°
2026-05-07 16:00 41.55571 41.47249 37210 ft 464 kts 69°
2026-05-07 16:00 41.57725 41.55346 37217 ft 464 kts 71°
2026-05-07 16:01 41.59792 41.63542 37214 ft 465 kts 71°
2026-05-07 16:01 41.61883 41.71732 37212 ft 466 kts 71°
2026-05-07 16:02 41.64000 41.79927 37209 ft 466 kts 71°
2026-05-07 16:02 41.66117 41.88117 37214 ft 467 kts 71°
2026-05-07 16:02 41.67167 41.92187 37325 ft 470 kts 72°
2026-05-07 16:03 41.68234 41.96337 37268 ft 474 kts 72°
2026-05-07 16:03 41.70382 42.04708 37113 ft 473 kts 71°
2026-05-07 16:04 41.72488 42.12945 37179 ft 464 kts 71°
2026-05-07 16:04 41.74574 42.21132 37187 ft 465 kts 71°
2026-05-07 16:05 41.76659 42.29344 37186 ft 466 kts 71°
2026-05-07 16:05 41.78741 42.37575 37190 ft 467 kts 71°
2026-05-07 16:06 41.80822 42.45829 37184 ft 468 kts 71°
2026-05-07 16:06 41.82888 42.54052 37183 ft 469 kts 72°
2026-05-07 16:07 41.84966 42.62353 37184 ft 470 kts 72°
2026-05-07 16:07 41.87044 42.70683 37175 ft 471 kts 72°
2026-05-07 16:08 41.89118 42.79022 37180 ft 471 kts 72°
2026-05-07 16:08 41.91095 42.87365 37187 ft 472 kts 75°
2026-05-07 16:09 41.92739 42.95894 37175 ft 472 kts 77°
2026-05-07 16:09 41.94310 43.04486 37173 ft 473 kts 77°
2026-05-07 16:10 41.95902 43.13066 37181 ft 474 kts 76°
2026-05-07 16:10 41.96709 43.17370 37329 ft 475 kts 76°
2026-05-07 16:10 41.97516 43.21661 37560 ft 473 kts 76°
2026-05-07 16:10 41.98323 43.25945 37772 ft 472 kts 76°
2026-05-07 16:11 41.99080 43.29976 37933 ft 473 kts 76°
2026-05-07 16:11 42.00689 43.38572 38182 ft 475 kts 77°
2026-05-07 16:11 42.01481 43.42821 38317 ft 475 kts 77°
2026-05-07 16:12 42.02284 43.47137 38466 ft 475 kts 77°
2026-05-07 16:12 42.03084 43.51450 38644 ft 475 kts 77°
2026-05-07 16:12 42.03883 43.55763 38791 ft 475 kts 77°
2026-05-07 16:12 42.04680 43.60079 38895 ft 476 kts 77°
2026-05-07 16:13 42.05478 43.64411 38988 ft 476 kts 77°
2026-05-07 16:13 42.06271 43.68725 39105 ft 473 kts 77°
2026-05-07 16:13 42.07061 43.73029 39159 ft 474 kts 77°
2026-05-07 16:14 42.08641 43.81676 39183 ft 477 kts 77°
2026-05-07 16:14 42.10225 43.90386 39180 ft 481 kts 77°
2026-05-07 16:15 42.11807 43.99121 39180 ft 483 kts 77°
2026-05-07 16:15 42.13398 44.07946 39178 ft 485 kts 77°
2026-05-07 16:16 42.14984 44.16789 39171 ft 485 kts 77°
2026-05-07 16:16 42.16564 44.25635 39166 ft 484 kts 77°
2026-05-07 16:17 42.18122 44.34405 39162 ft 482 kts 77°
2026-05-07 16:17 42.19678 44.43204 39166 ft 480 kts 78°
2026-05-07 16:18 42.21220 44.51965 39157 ft 478 kts 78°
2026-05-07 16:18 42.22738 44.60633 39164 ft 476 kts 78°
2026-05-07 16:19 42.24255 44.69341 39161 ft 475 kts 78°
2026-05-07 16:19 42.25759 44.78011 39173 ft 474 kts 78°
2026-05-07 16:20 42.27251 44.86651 39166 ft 473 kts 78°
2026-05-07 16:20 42.28489 44.93856 39170 ft 474 kts 78°
2026-05-07 16:21 42.29975 45.02535 39178 ft 474 kts 78°
2026-05-07 16:21 42.31459 45.11251 39175 ft 475 kts 78°
2026-05-07 16:22 42.32939 45.19998 39170 ft 478 kts 78°
2026-05-07 16:22 42.34418 45.28771 39157 ft 479 kts 78°
2026-05-07 16:23 42.35886 45.37526 39179 ft 481 kts 78°
2026-05-07 16:23 42.37364 45.46382 39188 ft 483 kts 78°
2026-05-07 16:24 42.38840 45.55267 39177 ft 484 kts 78°
2026-05-07 16:24 42.40306 45.64142 39196 ft 486 kts 78°
2026-05-07 16:25 42.41779 45.73102 39191 ft 487 kts 79°
2026-05-07 16:25 42.43417 45.82031 39207 ft 487 kts 75°
2026-05-07 16:26 42.45367 45.90761 39176 ft 486 kts 74°
2026-05-07 16:26 42.47353 45.99516 39197 ft 485 kts 74°
2026-05-07 16:27 42.49292 46.08280 39197 ft 484 kts 75°
2026-05-07 16:27 42.51183 46.16975 39199 ft 483 kts 75°
2026-05-07 16:28 42.53072 46.25713 39195 ft 482 kts 75°
2026-05-07 16:28 42.54946 46.34415 39195 ft 480 kts 75°
2026-05-07 16:29 42.56801 46.43057 39194 ft 479 kts 75°
2026-05-07 16:29 42.58665 46.51772 39197 ft 480 kts 75°
2026-05-07 16:30 42.60522 46.60492 39190 ft 481 kts 75°
2026-05-07 16:30 42.62369 46.69202 39193 ft 483 kts 75°
2026-05-07 16:31 42.64229 46.78010 39180 ft 486 kts 76°
2026-05-07 16:31 42.66089 46.86856 39181 ft 489 kts 76°
2026-05-07 16:32 42.67964 46.95800 39163 ft 492 kts 76°
2026-05-07 16:32 42.69834 47.04777 39153 ft 494 kts 76°
2026-05-07 16:33 42.71691 47.13722 39128 ft 494 kts 76°
2026-05-07 16:33 42.73550 47.22712 39124 ft 493 kts 76°
2026-05-07 16:34 42.75397 47.31687 39109 ft 492 kts 76°
2026-05-07 16:34 42.77233 47.40649 39090 ft 490 kts 76°
2026-05-07 16:35 42.79057 47.49593 39077 ft 489 kts 76°
2026-05-07 16:35 42.80858 47.58453 39075 ft 488 kts 76°
2026-05-07 16:36 42.83354 47.67062 39071 ft 489 kts 60°
2026-05-07 16:36 42.87229 47.74618 39076 ft 488 kts 53°
2026-05-07 16:37 42.91281 47.82078 39078 ft 488 kts 54°
2026-05-07 16:37 42.95289 47.89587 39081 ft 489 kts 54°
2026-05-07 16:38 42.99246 47.97117 39073 ft 490 kts 54°
2026-05-07 16:38 43.01376 48.00749 39045 ft 490 kts 40°
2026-05-07 16:38 43.04173 48.03329 39089 ft 483 kts 21°
2026-05-07 16:38 43.07346 48.04772 39071 ft 478 kts
2026-05-07 16:39 43.10642 48.05135 39081 ft 472 kts 356°
2026-05-07 16:39 43.17186 48.04913 39074 ft 474 kts 354°
2026-05-07 16:40 43.23799 48.04563 39067 ft 476 kts 354°
2026-05-07 16:40 43.30462 48.04292 39069 ft 479 kts 355°
2026-05-07 16:41 43.37106 48.04085 39053 ft 480 kts 355°
2026-05-07 16:41 43.43808 48.03895 39062 ft 481 kts 355°
2026-05-07 16:42 43.50501 48.03705 39057 ft 480 kts 355°
2026-05-07 16:42 43.57135 48.03512 39056 ft 479 kts 355°
2026-05-07 16:43 43.63785 48.03317 39046 ft 476 kts 355°
2026-05-07 16:43 43.70416 48.03122 39048 ft 474 kts 355°
2026-05-07 16:44 43.77012 48.02927 39046 ft 472 kts 355°
2026-05-07 16:44 43.83528 48.02733 39047 ft 470 kts 355°
2026-05-07 16:45 43.90075 48.02539 39041 ft 469 kts 355°
2026-05-07 16:45 43.96613 48.02344 39044 ft 468 kts 356°
2026-05-07 16:46 44.03094 48.02150 39040 ft 468 kts 356°
2026-05-07 16:46 44.09639 48.01954 39033 ft 469 kts 356°
2026-05-07 16:47 44.16162 48.01758 39035 ft 470 kts 356°
2026-05-07 16:47 44.22674 48.01563 39035 ft 471 kts 356°
2026-05-07 16:48 44.29241 48.01365 39031 ft 472 kts 356°
2026-05-07 16:48 44.35818 48.01167 39027 ft 473 kts 356°
2026-05-07 16:49 44.42414 48.00967 39020 ft 474 kts 356°
2026-05-07 16:49 44.48971 48.00769 39015 ft 474 kts 356°
2026-05-07 16:50 44.55587 48.00568 39012 ft 474 kts 356°
2026-05-07 16:50 44.62164 48.00368 39010 ft 474 kts 356°
2026-05-07 16:51 44.68773 48.00167 39010 ft 473 kts 356°
2026-05-07 16:51 44.75366 47.99965 39006 ft 472 kts 356°
2026-05-07 16:52 44.81898 47.99765 39000 ft 472 kts 356°
2026-05-07 16:52 44.88461 47.99563 38995 ft 470 kts 356°
2026-05-07 16:53 44.95003 47.99361 38988 ft 469 kts 356°
2026-05-07 16:53 45.01541 47.99160 38987 ft 468 kts 356°
2026-05-07 16:54 45.08021 47.98959 38987 ft 468 kts 356°
2026-05-07 16:54 45.14534 47.98758 38946 ft 466 kts 357°
2026-05-07 16:55 45.21003 47.98557 38967 ft 464 kts 357°
2026-05-07 16:55 45.27439 47.98356 38969 ft 463 kts 357°
2026-05-07 16:56 45.33855 47.98156 38971 ft 462 kts 357°
2026-05-07 16:56 45.43541 47.97852 38979 ft 468 kts 357°
2026-05-07 16:57 45.50088 47.97646 38975 ft 472 kts 357°
2026-05-07 16:57 45.56691 47.97439 38975 ft 475 kts 357°
2026-05-07 16:58 45.63284 47.97231 38964 ft 477 kts 357°
2026-05-07 16:58 45.69938 47.97021 38956 ft 478 kts 357°
2026-05-07 16:59 45.76603 47.96811 38950 ft 477 kts 357°
2026-05-07 16:59 45.83182 47.96602 38944 ft 475 kts 357°
2026-05-07 17:00 45.89782 47.96392 38942 ft 472 kts 357°
2026-05-07 17:00 45.96332 47.96183 38936 ft 470 kts 357°
2026-05-07 17:01 46.02857 47.95961 38929 ft 467 kts 354°
2026-05-07 17:01 46.06011 47.95026 38921 ft 460 kts 335°
2026-05-07 17:01 46.08801 47.92857 38927 ft 455 kts 321°
2026-05-07 17:02 46.11101 47.89792 38920 ft 449 kts 306°
2026-05-07 17:02 46.12888 47.86096 38943 ft 448 kts 301°
2026-05-07 17:02 46.16210 47.78489 38938 ft 453 kts 300°
2026-05-07 17:03 46.19617 47.70756 38932 ft 458 kts 301°
2026-05-07 17:03 46.23074 47.63064 38930 ft 458 kts 301°
2026-05-07 17:04 46.26526 47.55372 38937 ft 455 kts 301°
2026-05-07 17:04 46.29956 47.47705 38939 ft 452 kts 301°
2026-05-07 17:05 46.33359 47.40075 38946 ft 450 kts 301°
2026-05-07 17:05 46.36747 47.32456 38953 ft 449 kts 301°
2026-05-07 17:06 46.40109 47.24877 38955 ft 450 kts 301°
2026-05-07 17:06 46.43501 47.17207 38957 ft 452 kts 301°
2026-05-07 17:07 46.46901 47.09500 38959 ft 454 kts 301°
2026-05-07 17:07 46.50288 47.01799 38960 ft 456 kts 301°
2026-05-07 17:08 46.53140 46.95301 38962 ft 458 kts 301°
2026-05-07 17:08 46.57126 46.86192 38966 ft 460 kts 301°
2026-05-07 17:09 46.60006 46.79591 38961 ft 459 kts 301°
2026-05-07 17:09 46.63373 46.71858 38957 ft 450 kts 301°
2026-05-07 17:10 46.66704 46.64181 38960 ft 447 kts 301°
2026-05-07 17:10 46.70018 46.56523 38967 ft 445 kts 301°
2026-05-07 17:11 46.73284 46.48956 38971 ft 443 kts 301°
2026-05-07 17:11 46.76569 46.41322 38973 ft 443 kts 301°
2026-05-07 17:12 46.79853 46.33670 38979 ft 444 kts 301°
2026-05-07 17:12 46.83115 46.26048 38975 ft 446 kts 301°
2026-05-07 17:13 46.84778 46.22153 38524 ft 455 kts 301°
2026-05-07 17:13 46.86457 46.18218 37949 ft 455 kts 301°
2026-05-07 17:13 46.88125 46.14302 37391 ft 453 kts 302°
2026-05-07 17:13 46.89792 46.10384 36832 ft 452 kts 302°
2026-05-07 17:14 46.91654 46.06698 36251 ft 450 kts 313°
2026-05-07 17:14 46.93911 46.03599 35770 ft 447 kts 323°
2026-05-07 17:14 46.96466 46.01059 35288 ft 443 kts 333°
2026-05-07 17:14 46.99235 45.99054 34719 ft 442 kts 336°
2026-05-07 17:15 47.01999 45.97168 34127 ft 443 kts 337°
2026-05-07 17:15 47.04804 45.95277 33406 ft 444 kts 337°
2026-05-07 17:15 47.07605 45.93376 32939 ft 440 kts 337°
2026-05-07 17:15 47.10370 45.91478 32453 ft 436 kts 337°
2026-05-07 17:16 47.13087 45.89593 31918 ft 431 kts 336°
2026-05-07 17:16 47.15785 45.87707 31575 ft 424 kts 336°
2026-05-07 17:16 47.18403 45.85869 31140 ft 420 kts 336°
2026-05-07 17:16 47.21033 45.84017 30716 ft 416 kts 336°
2026-05-07 17:17 47.23634 45.82183 30292 ft 412 kts 336°
2026-05-07 17:17 47.26214 45.80361 29836 ft 409 kts 336°
2026-05-07 17:17 47.28770 45.78555 29380 ft 404 kts 336°
2026-05-07 17:17 47.31292 45.76771 28941 ft 399 kts 336°
2026-05-07 17:18 47.33785 45.75006 28518 ft 395 kts 336°
2026-05-07 17:18 47.36204 45.73292 28097 ft 391 kts 336°
2026-05-07 17:18 47.38640 45.71565 27669 ft 387 kts 336°
2026-05-07 17:18 47.41062 45.69845 27259 ft 384 kts 336°
2026-05-07 17:19 47.43462 45.68140 26821 ft 381 kts 336°
2026-05-07 17:19 47.45841 45.66448 26414 ft 378 kts 336°
2026-05-07 17:19 47.48197 45.64770 25994 ft 375 kts 336°
2026-05-07 17:19 47.50542 45.63098 25583 ft 372 kts 336°
2026-05-07 17:20 47.52873 45.61435 25178 ft 370 kts 336°
2026-05-07 17:20 47.55191 45.59780 24780 ft 369 kts 336°
2026-05-07 17:20 47.57497 45.58132 24377 ft 367 kts 336°
2026-05-07 17:20 47.59790 45.56491 23980 ft 366 kts 336°
2026-05-07 17:21 47.62082 45.54849 23581 ft 365 kts 336°
2026-05-07 17:21 47.63591 45.53767 23274 ft 364 kts 336°
2026-05-07 17:21 47.66633 45.51584 22698 ft 361 kts 336°
2026-05-07 17:21 47.68881 45.49968 22295 ft 358 kts 336°
2026-05-07 17:22 47.71088 45.48381 21898 ft 356 kts 336°
2026-05-07 17:22 47.73310 45.46782 21497 ft 354 kts 336°
2026-05-07 17:22 47.75525 45.45186 21086 ft 352 kts 336°
2026-05-07 17:22 47.77727 45.43599 20689 ft 351 kts 336°
2026-05-07 17:23 47.79835 45.41875 20294 ft 351 kts 329°
2026-05-07 17:23 47.81741 45.39624 20045 ft 349 kts 321°
2026-05-07 17:23 47.83526 45.37204 19790 ft 345 kts 321°
2026-05-07 17:23 47.85276 45.34797 19536 ft 341 kts 320°
2026-05-07 17:24 47.87046 45.32370 19210 ft 350 kts 321°
2026-05-07 17:24 47.88848 45.29909 18807 ft 351 kts 321°
2026-05-07 17:24 47.90651 45.27454 18407 ft 351 kts 321°
2026-05-07 17:24 47.92451 45.25006 17969 ft 349 kts 321°
2026-05-07 17:25 47.94240 45.22575 17513 ft 346 kts 321°
2026-05-07 17:25 47.96014 45.20165 17068 ft 344 kts 321°
2026-05-07 17:25 47.97773 45.17774 16674 ft 340 kts 321°
2026-05-07 17:25 47.99512 45.15407 16330 ft 335 kts 321°
2026-05-07 17:26 48.01221 45.13079 15991 ft 331 kts 321°
2026-05-07 17:26 48.03029 45.11035 15640 ft 323 kts 336°
2026-05-07 17:26 48.05062 45.09802 15346 ft 317 kts 342°
2026-05-07 17:26 48.07126 45.08701 15061 ft 313 kts 343°
2026-05-07 17:27 48.09184 45.07625 14786 ft 312 kts 343°
2026-05-07 17:27 48.11234 45.06550 14529 ft 312 kts 343°
2026-05-07 17:27 48.13288 45.05463 14272 ft 315 kts 342°
2026-05-07 17:27 48.15351 45.04363 14010 ft 316 kts 342°
2026-05-07 17:28 48.17427 45.03248 13742 ft 315 kts 342°
2026-05-07 17:28 48.19482 45.02138 13424 ft 313 kts 342°
2026-05-07 17:28 48.21523 45.01032 13047 ft 310 kts 342°
2026-05-07 17:28 48.23542 44.99936 12677 ft 307 kts 342°
2026-05-07 17:29 48.25544 44.98847 12313 ft 304 kts 342°
2026-05-07 17:29 48.27503 44.97780 11945 ft 295 kts 342°
2026-05-07 17:29 48.29404 44.96743 11612 ft 287 kts 342°
2026-05-07 17:29 48.31261 44.95729 11288 ft 283 kts 342°
2026-05-07 17:30 48.33089 44.94731 10957 ft 277 kts 342°
2026-05-07 17:30 48.34895 44.93745 10654 ft 275 kts 342°
2026-05-07 17:30 48.36693 44.92763 10365 ft 273 kts 342°
2026-05-07 17:30 48.38476 44.91788 10075 ft 271 kts 342°
2026-05-07 17:31 48.40243 44.90820 9785 ft 270 kts 342°
2026-05-07 17:31 48.41981 44.89868 9478 ft 268 kts 342°
2026-05-07 17:31 48.43728 44.88911 9161 ft 266 kts 342°
2026-05-07 17:31 48.45465 44.87957 8849 ft 265 kts 342°
2026-05-07 17:32 48.47193 44.87008 8545 ft 264 kts 341°
2026-05-07 17:32 48.48915 44.86062 8239 ft 262 kts 341°
2026-05-07 17:32 48.50625 44.85122 7936 ft 261 kts 341°
2026-05-07 17:32 48.52327 44.84184 7641 ft 260 kts 341°
2026-05-07 17:33 48.54021 44.83252 7346 ft 259 kts 341°
2026-05-07 17:33 48.55696 44.82328 7046 ft 254 kts 341°
2026-05-07 17:33 48.57340 44.81421 6745 ft 248 kts 341°
2026-05-07 17:33 48.58927 44.80545 6450 ft 243 kts 341°
2026-05-07 17:34 48.60506 44.79699 6145 ft 238 kts 346°
2026-05-07 17:34 48.62133 44.79407 5834 ft 235 kts
2026-05-07 17:34 48.63753 44.79726 5575 ft 234 kts
2026-05-07 17:34 48.65356 44.80151 5326 ft 234 kts
2026-05-07 17:35 48.66958 44.80592 5086 ft 234 kts
2026-05-07 17:35 48.68556 44.81038 4843 ft 234 kts
2026-05-07 17:35 48.70159 44.81488 4592 ft 234 kts
2026-05-07 17:35 48.71763 44.81940 4343 ft 235 kts
2026-05-07 17:36 48.73357 44.82314 4094 ft 234 kts
2026-05-07 17:36 48.74970 44.82034 3843 ft 234 kts 343°
2026-05-07 17:36 48.76449 44.81038 3589 ft 230 kts 331°
2026-05-07 17:36 48.77823 44.79832 3349 ft 225 kts 330°
2026-05-07 17:37 48.79160 44.78633 3100 ft 223 kts 329°
2026-05-07 17:37 48.80501 44.77430 3017 ft 226 kts 329°
2026-05-07 17:37 48.81855 44.76214 2976 ft 226 kts 329°
2026-05-07 17:37 48.83203 44.75007 2969 ft 223 kts 330°
2026-05-07 17:38 48.84536 44.73798 2971 ft 224 kts 327°
2026-05-07 17:38 48.85692 44.72208 2976 ft 225 kts 308°
2026-05-07 17:38 48.86438 44.70151 2983 ft 227 kts 290°
2026-05-07 17:38 48.86712 44.67779 2992 ft 229 kts 273°
2026-05-07 17:39 48.86692 44.65364 2994 ft 227 kts 270°
2026-05-07 17:39 48.86641 44.63044 2992 ft 210 kts 270°
2026-05-07 17:39 48.86478 44.60947 2978 ft 193 kts 254°
2026-05-07 17:39 48.86019 44.59025 3022 ft 195 kts 252°
2026-05-07 17:40 48.85507 44.57125 3012 ft 193 kts 248°
2026-05-07 17:40 48.84944 44.55287 3000 ft 191 kts 247°
2026-05-07 17:40 48.84371 44.53484 2993 ft 189 kts 246°
2026-05-07 17:40 48.83790 44.51666 2825 ft 194 kts 246°
2026-05-07 17:41 48.83200 44.49819 2576 ft 191 kts 246°
2026-05-07 17:41 48.82637 44.48057 2341 ft 180 kts 246°
2026-05-07 17:41 48.82114 44.46419 2161 ft 163 kts 247°
2026-05-07 17:41 48.81638 44.44926 1909 ft 150 kts 247°
2026-05-07 17:42 48.81185 44.43499 1723 ft 150 kts 247°
2026-05-07 17:42 48.80736 44.42090 1510 ft 147 kts 246°
2026-05-07 17:42 48.80292 44.40694 1326 ft 147 kts 246°
2026-05-07 17:42 48.79849 44.39298 1123 ft 147 kts 245°
2026-05-07 17:43 48.79405 44.37904 919 ft 147 kts 244°
2026-05-07 17:43 48.78962 44.36510 691 ft 147 kts 244°
2026-05-07 17:43 48.78512 44.35091 459 ft 150 kts 245°
2026-05-07 17:43 48.78099 44.33779 438 ft 123 kts 243°
2026-05-07 17:44 48.77791 44.32818 462 ft 79 kts 244°
2026-05-07 17:44 48.77616 44.32268 472 ft 40 kts 244°
2026-05-07 17:44 48.77511 44.31932 479 ft 27 kts 249°
2026-05-07 17:44 48.77562 44.31767 482 ft 18 kts 335°
2026-05-07 17:45 48.77638 44.31768 481 ft 10 kts 48°
2026-05-07 17:45 48.77672 44.31865 475 ft 10 kts 65°
2026-05-07 17:45 48.77703 44.31962 472 ft 10 kts 64°
2026-05-07 17:45 48.77735 44.32064 470 ft 11 kts 64°
2026-05-07 17:46 48.77773 44.32187 473 ft 15 kts 65°
2026-05-07 17:46 48.77833 44.32377 469 ft 25 kts 64°
2026-05-07 17:46 48.77920 44.32650 464 ft 33 kts 64°
2026-05-07 17:46 48.78024 44.32981 458 ft 36 kts 64°
2026-05-07 17:47 48.78132 44.33323 451 ft 36 kts 64°
2026-05-07 17:47 48.78238 44.33659 438 ft 35 kts 64°
2026-05-07 17:47 48.78344 44.33994 425 ft 34 kts 64°
2026-05-07 17:47 48.78430 44.34198 431 ft 15 kts 12°
2026-05-07 17:48 48.78530 44.34169 434 ft 14 kts 345°
2026-05-07 17:48 48.78626 44.34144 429 ft 14 kts 12°
2026-05-07 17:48 48.78660 44.34217 432 ft 9 kts 68°
2026-05-07 17:48 48.78688 44.34325 426 ft 14 kts 69°
2026-05-07 17:49 48.78737 44.34513 427 ft 22 kts 68°
2026-05-07 17:49 48.78797 44.34745 420 ft 24 kts 69°
2026-05-07 17:49 48.78852 44.34954 419 ft 15 kts 68°
2026-05-07 17:49 48.78903 44.34989 415 ft 9 kts 345°
2026-05-07 17:50 48.78945 44.34965 417 ft 0 kts 339°